Weather History for Tin City, AK

Change the Weather History Date:

Monday, November 19, 2012

  Actual Average Record
Temperature  
Mean Temperature 8 °F -  
Max Temperature 14 °F 22 °F 123 °F (1996)
Min Temperature 3 °F 11 °F 1 °F (1998)
Degree Days  
Heating Degree Days 56    
Moisture  
Dew Point 4 °F    
Average Humidity 78    
Maximum Humidity 96    
Minimum Humidity 41    
Precipitation  
Precipitation 0.00 in - - ()
Sea Level Pressure  
Sea Level Pressure 30.31 in    
Wind  
Wind Speed 16 mph (NE)    
Max Wind Speed 18 mph    
Max Gust Speed -    
Visibility 10 miles    
Events Snow    
Averages and records for this station are not official NWS values.
T = Trace of Precipitation, MM = Missing Value Source: NWS Daily Summary

Daily Weather History Graph

Daily Weather History Graph

Search for Another Location

Airport:

Trip Planner

Search our weather history database for the weather conditions in past years. The results will help you decide how hot, cold, wet, or windy it might be!

Date:

Astronomy

Nov. 19, 2012 Rise Set
Actual Time 11:11 AM AKST 4:42 PM AKST
Civil Twilight 10:02 AM AKST 5:51 PM AKST
Nautical Twilight 8:55 AM AKST 6:57 PM AKST
Astronomical Twilight 7:55 AM AKST 7:57 PM AKST
Moon 3:09 PM AKST (11/19) No Moon Set
Length of Visible Light 7h 49m
Length of Day
5h 30m
Waxing Crescent, 42% of the Moon is Illuminated
Nov 19
Waxing Crescent
Nov 20
First Quarter
Nov 28
Full
Dec 6
Last Quarter
Dec 12
New

Hourly Weather History & Observations

Time (AKST) Temp. Windchill Dew Point Humidity Pressure Visibility Wind Dir Wind Speed Gust Speed Precip Events Conditions
12:55 AM 14.2 °F -2.7 °F 11.5 °F 89% 30.25 in 10.0 mi NNE 18.4 mph - N/A   Clear
1:55 AM 11.8 °F -5.3 °F 10.2 °F 93% 30.26 in 10.0 mi NNE 17.3 mph - N/A   Clear
2:55 AM 11.8 °F -4.8 °F 9.1 °F 89% 30.27 in 10.0 mi NE 16.1 mph - N/A   Clear
3:55 AM 10.2 °F -6.3 °F 9.1 °F 95% 30.28 in 10.0 mi NE 15.0 mph - N/A   Clear
4:55 AM 11.5 °F -5.2 °F 9.5 °F 92% 30.29 in 10.0 mi NE 16.1 mph - N/A   Clear
5:55 AM 11.7 °F -5.0 °F 9.9 °F 92% 30.28 in 10.0 mi NE 16.1 mph - N/A   Clear
6:55 AM 12.7 °F -3.0 °F 10.8 °F 92% 30.29 in 10.0 mi NE 15.0 mph - N/A   Clear
7:55 AM 10.2 °F -6.9 °F 9.3 °F 96% 30.30 in 10.0 mi NE 16.1 mph - N/A   Clear
8:55 AM 11.1 °F -4.5 °F 10.2 °F 96% 30.32 in 10.0 mi NE 13.8 mph - N/A Snow Light Snow Showers
9:55 AM 12.0 °F -3.4 °F 10.9 °F 95% 30.33 in 10.0 mi NNE 13.8 mph - N/A   Clear
10:55 AM 11.3 °F -4.3 °F 9.5 °F 92% 30.32 in 10.0 mi NNE 13.8 mph - N/A   Clear
11:55 AM 11.1 °F -5.1 °F 9.1 °F 92% 30.32 in 10.0 mi NNE 15.0 mph - N/A   Clear
12:55 PM 10.4 °F -6.6 °F 8.6 °F 92% 30.32 in 10.0 mi NNE 16.1 mph - N/A   Clear
1:55 PM 10.4 °F -6.6 °F 3.0 °F 72% 30.32 in 10.0 mi NE 16.1 mph - N/A   Clear
2:55 PM 10.2 °F -5.7 °F -0.2 °F 63% 30.32 in 10.0 mi NE 13.8 mph - N/A   Clear
3:55 PM 8.1 °F -9.6 °F -2.6 °F 62% 30.32 in 10.0 mi NNE 16.1 mph - N/A   Clear
4:55 PM 9.1 °F -8.2 °F -4.5 °F 54% 30.32 in 10.0 mi NNE 16.1 mph - N/A   Clear
5:55 PM 5.5 °F -14.0 °F -2.6 °F 69% 30.32 in 10.0 mi NE 18.4 mph - N/A   Clear
6:55 PM 4.1 °F -15.3 °F -4.7 °F 67% 30.34 in 10.0 mi NNE 17.3 mph - N/A   Clear
7:55 PM 3.9 °F -15.0 °F -6.5 °F 62% 30.34 in 10.0 mi NNE 16.1 mph - N/A   Clear
8:55 PM 4.5 °F -14.3 °F -6.3 °F 61% 30.35 in 10.0 mi NNE 16.1 mph - N/A   Clear
9:55 PM 4.8 °F -13.2 °F -6.7 °F 59% 30.33 in 10.0 mi NE 15.0 mph - N/A   Clear
10:55 PM 11.7 °F 5.5 °F -8.1 °F 41% 30.33 in 10.0 mi NNE 3.5 mph - N/A   Clear
11:55 PM 12.9 °F - -1.1 °F 54% 30.33 in 10.0 mi SW 1.2 mph - N/A   Clear